Charlotte, NC

7:34 AM EDT on September 25, 2017 (GMT -0400)
Charlotte-Douglas International

Weather History for KCLT - May, 2013

Change the Weather History Date:

Saturday, May 11, 2013

  Actual Average Record
Temperature  
Mean Temperature 72 °F 66 °F  
Max Temperature 81 °F 78 °F 95 °F (1916)
Min Temperature 63 °F 54 °F 39 °F (1977)
Degree Days  
Heating Degree Days 0 2  
Month to date heating degree days 43 29  
Since 1 July heating degree days 3190 3361  
Cooling Degree Days 7 3  
Month to date cooling degree days 14 26  
Year to date cooling degree days 57 63  
Growing Degree Days 22 (Base 50)    
Moisture  
Dew Point 60 °F    
Average Humidity 71    
Maximum Humidity 93    
Minimum Humidity 49    
Precipitation  
Precipitation 0.03 in 0.10 in 1.12 in (1957)
Month to date precipitation 2.27 1.08  
Year to date precipitation 18.02 14.86  
Snow  
Snow 0.00 in 0.00 in 0.00 in ()
Month to date snowfall 0.0 0.0  
Since 1 July snowfall 2.7 4.3  
Snow Depth 0.00 in    
Sea Level Pressure  
Sea Level Pressure 29.89 in    
Wind  
Wind Speed 9 mph (SW)    
Max Wind Speed 20 mph    
Max Gust Speed 25 mph    
Visibility 10 miles    
Events Rain    
T = Trace of Precipitation, MM = Missing Value Source: NWS Daily Summary

Daily Weather History Graph

Daily Weather History Graph

Search for Another Location

Airport or City:

Trip Planner

Search our weather history database for the weather conditions in past years. The results will help you decide how hot, cold, wet, or windy it might be!

Date:

Astronomy

May. 11, 2013 Rise Set
Actual Time 6:22 AM EDT 8:17 PM EDT
Civil Twilight 5:54 AM EDT 8:45 PM EDT
Nautical Twilight 5:21 AM EDT 9:19 PM EDT
Astronomical Twilight 4:45 AM EDT 9:56 PM EDT
Moon 7:30 AM EDT (5/11) 9:55 PM EDT (5/11)
Length of Visible Light 14h 51m
Length of Day
13h 55m
Waxing Crescent, 3% of the Moon is Illuminated
May 11
Waxing Crescent
May 18
First Quarter
May 25
Full
May 31
Last Quarter
Jun 8
New

Hourly Weather History & Observations

Time (EDT) Temp. Heat Index Dew Point Humidity Pressure Visibility Wind Dir Wind Speed Gust Speed Precip Events Conditions
12:52 AM 69.1 °F - 61.0 °F 75% 29.96 in 10.0 mi SSW 4.6 mph - N/A   Overcast
1:52 AM 70.0 °F - 60.1 °F 71% 29.95 in 10.0 mi South 9.2 mph - N/A   Mostly Cloudy
2:52 AM 68.0 °F - 60.1 °F 76% 29.93 in 10.0 mi SSW 9.2 mph - N/A   Mostly Cloudy
3:52 AM 68.0 °F - 60.1 °F 76% 29.92 in 10.0 mi SSW 8.1 mph - N/A   Mostly Cloudy
4:52 AM 66.0 °F - 60.1 °F 81% 29.92 in 10.0 mi SSW 8.1 mph - N/A   Mostly Cloudy
5:52 AM 64.9 °F - 60.1 °F 84% 29.91 in 10.0 mi South 8.1 mph - N/A   Mostly Cloudy
6:52 AM 64.9 °F - 59.0 °F 81% 29.92 in 10.0 mi SSW 5.8 mph - N/A   Mostly Cloudy
7:52 AM 64.9 °F - 60.1 °F 84% 29.93 in 10.0 mi SSE 6.9 mph - N/A   Mostly Cloudy
8:52 AM 70.0 °F - 60.1 °F 71% 29.92 in 10.0 mi SW 12.7 mph - N/A   Mostly Cloudy
9:52 AM 73.9 °F - 61.0 °F 64% 29.91 in 10.0 mi WSW 10.4 mph 18.4 mph N/A   Scattered Clouds
10:52 AM 75.9 °F - 61.0 °F 60% 29.92 in 10.0 mi SW 12.7 mph 18.4 mph N/A   Overcast
11:52 AM 78.1 °F - 60.1 °F 54% 29.90 in 10.0 mi SSW 13.8 mph 19.6 mph N/A   Overcast
12:52 PM 80.1 °F 80.7 °F 59.0 °F 48% 29.87 in 10.0 mi SSW 13.8 mph 20.7 mph N/A   Overcast
1:52 PM 78.1 °F - 59.0 °F 52% 29.87 in 10.0 mi WSW 11.5 mph 18.4 mph N/A   Mostly Cloudy
2:52 PM 79.0 °F - 60.1 °F 52% 29.86 in 10.0 mi SSW 16.1 mph 21.9 mph N/A   Overcast
3:52 PM 79.0 °F - 59.0 °F 50% 29.84 in 10.0 mi SW 16.1 mph 21.9 mph N/A   Overcast
4:52 PM 77.0 °F - 61.0 °F 58% 29.84 in 10.0 mi WSW 10.4 mph - N/A   Mostly Cloudy
5:52 PM 77.0 °F - 61.0 °F 58% 29.82 in 10.0 mi SW 10.4 mph 21.9 mph N/A   Mostly Cloudy
6:52 PM 75.0 °F - 60.1 °F 60% 29.81 in 10.0 mi SW 11.5 mph 19.6 mph N/A   Mostly Cloudy
7:52 PM 73.0 °F - 61.0 °F 66% 29.83 in 10.0 mi WSW 5.8 mph 18.4 mph N/A   Overcast
8:52 PM 71.1 °F - 62.1 °F 73% 29.84 in 10.0 mi West 9.2 mph - N/A   Overcast
9:52 PM 64.9 °F - 59.0 °F 81% 29.86 in 10.0 mi Calm Calm - 0.00 in   Overcast
10:52 PM 64.9 °F - 60.1 °F 84% 29.86 in 8.0 mi South 3.5 mph - N/A Rain Light Rain
11:52 PM 64.0 °F - 62.1 °F 93% 29.85 in 10.0 mi SW 3.5 mph - 0.02 in Rain Light Rain